Salida, CO

1:18 AM MDT on September 30, 2016 (GMT -0600)
Salida

Weather History for KANK - November, 2013

Change the Weather History Date:

Friday, November 1, 2013

  Actual Average (KGUC) Record (KGUC)
Temperature  
Mean Temperature 42 °F -  
Max Temperature 54 °F 47 °F 64 °F (2008)
Min Temperature 30 °F 19 °F 15 °F (1999)
Degree Days  
Heating Degree Days 23    
Moisture  
Dew Point 17 °F    
Average Humidity 44    
Maximum Humidity 67    
Minimum Humidity 16    
Precipitation  
Precipitation 0.00 in - - ()
Sea Level Pressure  
Sea Level Pressure 30.24 in    
Wind  
Wind Speed 7 mph (WNW)    
Max Wind Speed 13 mph    
Max Gust Speed 22 mph    
Visibility 10 miles    
Events      
Averages and records for this station are not official NWS values.
T = Trace of Precipitation, MM = Missing Value Source: NWS Daily Summary

Daily Weather History Graph

Daily Weather History Graph

Search for Another Location

Airport or City:

Trip Planner

Search our weather history database for the weather conditions in past years. The results will help you decide how hot, cold, wet, or windy it might be!

Date:

Astronomy

Nov. 01, 2013 Rise Set
Actual Time 7:31 AM MDT 6:03 PM MDT
Civil Twilight 7:03 AM MDT 6:31 PM MDT
Nautical Twilight 6:32 AM MDT 7:02 PM MDT
Astronomical Twilight 6:01 AM MDT 7:33 PM MDT
Moon 5:27 AM MDT (11/1) 4:57 PM MDT (11/1)
Length of Visible Light 11h 27m
Length of Day
10h 32m
Waning Crescent, 4% of the Moon is Illuminated
Nov 1
Waning Crescent
Nov 3
New
Nov 9
First Quarter
Nov 17
Full
Nov 25
Last Quarter

Hourly Weather History & Observations

Time (MDT) Temp. Windchill Dew Point Humidity Pressure Visibility Wind Dir Wind Speed Gust Speed Precip Events Conditions
12:15 AM 37.4 °F 30.8 °F 20.3 °F 50% 30.12 in 10.0 mi SSW 9.2 mph 18.4 mph N/A   Mostly Cloudy
12:35 AM 36.1 °F 29.3 °F 20.8 °F 54% 30.13 in 10.0 mi West 9.2 mph - N/A   Scattered Clouds
12:55 AM 36.0 °F 29.0 °F 20.8 °F 54% 30.12 in 10.0 mi WSW 9.2 mph 19.6 mph N/A   Scattered Clouds
1:15 AM 36.5 °F 28.7 °F 21.0 °F 54% 30.12 in 10.0 mi WSW 11.5 mph - N/A   Clear
1:35 AM 37.0 °F 32.4 °F 20.7 °F 52% 30.12 in 10.0 mi West 5.8 mph - N/A   Clear
1:55 AM 36.1 °F 29.3 °F 21.7 °F 56% 30.12 in 10.0 mi West 9.2 mph - N/A   Clear
2:15 AM 34.5 °F 27.9 °F 21.4 °F 59% 30.13 in 10.0 mi SW 8.1 mph - N/A   Clear
2:35 AM 36.1 °F 28.2 °F 22.3 °F 57% 30.13 in 10.0 mi SW 11.5 mph 21.9 mph N/A   Clear
2:55 AM 36.0 °F 29.6 °F 21.7 °F 56% 30.14 in 10.0 mi West 8.1 mph 18.4 mph N/A   Mostly Cloudy
3:15 AM 36.1 °F 29.9 °F 21.9 °F 56% 30.13 in 10.0 mi West 8.1 mph - N/A   Scattered Clouds
3:35 AM 32.2 °F 25.8 °F 19.9 °F 61% 30.14 in 10.0 mi NNW 6.9 mph - N/A   Scattered Clouds
3:55 AM 32.0 °F 25.6 °F 20.7 °F 63% 30.14 in 10.0 mi NW 6.9 mph - N/A   Scattered Clouds
4:15 AM 34.0 °F - 20.8 °F 59% 30.14 in 10.0 mi Calm Calm - N/A   Mostly Cloudy
4:35 AM 35.4 °F 29.0 °F 22.5 °F 59% 30.14 in 10.0 mi WSW 8.1 mph - N/A   Scattered Clouds
4:55 AM 36.9 °F 32.2 °F 22.6 °F 56% 30.14 in 10.0 mi SW 5.8 mph - N/A   Scattered Clouds
5:15 AM 37.6 °F 31.6 °F 22.1 °F 54% 30.15 in 10.0 mi West 8.1 mph - N/A   Mostly Cloudy
5:35 AM 34.9 °F 28.3 °F 21.4 °F 58% 30.15 in 10.0 mi NW 8.1 mph 16.1 mph N/A   Overcast
5:55 AM 33.8 °F 28.6 °F 21.0 °F 60% 30.16 in 10.0 mi NW 5.8 mph - N/A   Overcast
6:15 AM 34.7 °F 28.8 °F 21.2 °F 58% 30.17 in 10.0 mi NNW 6.9 mph - N/A   Overcast
6:35 AM 33.4 °F 30.4 °F 21.2 °F 61% 30.17 in 10.0 mi North 3.5 mph - N/A   Overcast
6:55 AM 33.1 °F - 21.2 °F 62% 30.18 in 10.0 mi Calm Calm - N/A   Mostly Cloudy
7:15 AM 32.2 °F - 21.2 °F 64% 30.19 in 10.0 mi Calm Calm - N/A   Mostly Cloudy
7:35 AM 30.9 °F - 21.0 °F 67% 30.20 in 10.0 mi Calm Calm - N/A   Scattered Clouds
7:55 AM 30.4 °F 26.9 °F 20.7 °F 67% 30.21 in 10.0 mi SW 3.5 mph - N/A   Clear
8:15 AM 31.6 °F - 21.7 °F 67% 30.22 in 10.0 mi Calm Calm - N/A   Clear
8:35 AM 34.9 °F 32.0 °F 22.1 °F 60% 30.23 in 10.0 mi SSW 3.5 mph - N/A   Clear
8:55 AM 33.3 °F - 21.7 °F 63% 30.24 in 10.0 mi Calm Calm - N/A   Clear
9:15 AM 36.0 °F - 22.3 °F 58% 30.24 in 10.0 mi Calm Calm - N/A   Clear
9:35 AM 36.7 °F 31.2 °F 22.1 °F 56% 30.24 in 10.0 mi North 6.9 mph - N/A   Clear
9:55 AM 42.8 °F 41.1 °F 20.1 °F 40% 30.23 in 10.0 mi South 3.5 mph - N/A   Clear
10:15 AM 43.5 °F 41.9 °F 18.7 °F 37% 30.23 in 10.0 mi NNW 3.5 mph - N/A   Clear
10:35 AM 45.5 °F 40.8 °F 16.9 °F 32% 30.23 in 10.0 mi SW 9.2 mph - N/A   Clear
10:55 AM 47.7 °F - 15.3 °F 27% 30.23 in 10.0 mi NNW 8.1 mph 19.6 mph N/A   Clear
11:15 AM 46.4 °F 44.3 °F 14.0 °F 27% 30.24 in 10.0 mi NE 4.6 mph - N/A   Clear
11:35 AM 49.3 °F - 15.3 °F 26% 30.24 in 10.0 mi SW 11.5 mph 16.1 mph N/A   Clear
11:55 AM 49.5 °F - 15.6 °F 26% 30.24 in 10.0 mi WSW 6.9 mph - N/A   Clear
12:15 PM 49.6 °F - 13.5 °F 24% 30.24 in 10.0 mi West 6.9 mph - N/A   Clear
12:35 PM 50.9 °F - 14.2 °F 23% 30.24 in 10.0 mi West 8.1 mph - N/A   Clear
12:55 PM 50.7 °F - 14.5 °F 24% 30.24 in 10.0 mi WNW 4.6 mph - N/A   Clear
1:15 PM 51.1 °F - 9.7 °F 19% 30.22 in 10.0 mi SSW 8.1 mph - N/A   Clear
1:35 PM 52.3 °F - 8.6 °F 17% 30.22 in 10.0 mi SSW 3.5 mph 17.3 mph N/A   Clear
1:55 PM 54.0 °F - 10.6 °F 18% 30.22 in 10.0 mi North 9.2 mph 19.6 mph N/A   Clear
2:15 PM 52.9 °F - 9.1 °F 17% 30.22 in 10.0 mi North 11.5 mph 19.6 mph N/A   Clear
3:55 PM 52.7 °F - 7.7 °F 16% 30.24 in 10.0 mi NW 10.4 mph - N/A   Clear
4:15 PM 52.5 °F - 9.3 °F 18% 30.24 in 10.0 mi North 10.4 mph - N/A   Clear
4:35 PM 52.0 °F - 10.2 °F 19% 30.25 in 10.0 mi NNW 6.9 mph - N/A   Clear
4:55 PM 51.1 °F - 10.6 °F 20% 30.25 in 10.0 mi NW 8.1 mph - N/A   Clear
5:15 PM 49.8 °F - 11.3 °F 21% 30.27 in 10.0 mi NW 10.4 mph - N/A   Clear
5:35 PM 48.6 °F - 12.2 °F 23% 30.27 in 10.0 mi NW 11.5 mph - N/A   Clear
5:55 PM 46.9 °F - 13.1 °F 26% 30.29 in 10.0 mi NW 12.7 mph 18.4 mph N/A   Clear
6:15 PM 45.5 °F 40.3 °F 13.8 °F 28% 30.30 in 10.0 mi NW 10.4 mph - N/A   Clear
6:35 PM 43.0 °F 38.2 °F 14.0 °F 31% 30.32 in 10.0 mi WSW 8.1 mph - N/A   Clear
6:55 PM 42.3 °F 38.6 °F 15.4 °F 34% 30.33 in 10.0 mi NW 5.8 mph - N/A   Clear
7:15 PM 42.8 °F 37.5 °F 15.6 °F 33% 30.34 in 10.0 mi NNW 9.2 mph 16.1 mph N/A   Clear
7:35 PM 41.7 °F 35.6 °F 16.3 °F 36% 30.35 in 10.0 mi NW 10.4 mph 16.1 mph N/A   Clear
7:55 PM 40.6 °F 35.4 °F 15.6 °F 36% 30.35 in 10.0 mi WNW 8.1 mph - N/A   Clear
8:15 PM 38.5 °F 35.0 °F 16.0 °F 40% 30.37 in 10.0 mi West 4.6 mph - N/A   Clear
8:35 PM 34.9 °F 30.8 °F 16.0 °F 46% 30.37 in 10.0 mi WSW 4.6 mph - N/A   Clear
8:55 PM 36.7 °F 34.1 °F 16.9 °F 45% 30.37 in 10.0 mi West 3.5 mph - N/A   Clear
9:15 PM 36.0 °F - 18.5 °F 49% 30.38 in 10.0 mi Calm Calm - N/A   Clear
9:35 PM 33.8 °F 30.8 °F 17.4 °F 51% 30.39 in 10.0 mi NNW 3.5 mph - N/A   Clear
9:55 PM 37.4 °F 34.9 °F 16.7 °F 43% 30.39 in 10.0 mi NW 3.5 mph - N/A   Clear
10:15 PM 36.5 °F 33.9 °F 17.1 °F 45% 30.40 in 10.0 mi West 3.5 mph - N/A   Clear
10:35 PM 33.3 °F 27.9 °F 17.2 °F 52% 30.40 in 10.0 mi WSW 5.8 mph - N/A   Clear
10:55 PM 32.7 °F 28.3 °F 17.2 °F 53% 30.40 in 10.0 mi West 4.6 mph - N/A   Clear
11:15 PM 33.4 °F 30.4 °F 17.4 °F 52% 30.39 in 10.0 mi WNW 3.5 mph - N/A   Clear
11:35 PM 32.9 °F 27.5 °F 16.9 °F 52% 30.39 in 10.0 mi West 5.8 mph - N/A   Clear
11:55 PM 31.6 °F 26.0 °F 17.1 °F 55% 30.38 in 10.0 mi NW 5.8 mph - N/A   Clear